Погода в Приветном

Украина / Волынская область     50°38′25″N   24°44′52″E
темп.,
°C
ветер,
м/с
пор.,
м/с
влажн.,
%
обл.,
%
осадки,
мм/ч
давл.,
гПа
погр.,
м
14 мая, пт
пт1400:00+11юв3996100 0.3 1003289
03:00+10ююв5109676 0.3 1003278
06:00+9ю389640 0.0 1003162
09:00+12ю3989100 0.0 1003310
12:00+14ююз478158 0.2 1004564
15:00+18ююз676573 1.3 10041474
18:00+16юз577576 1.4 1004931
21:00+11юз5118717 1.7 1006372
15 мая, сб
сб1500:00+8юз41096100 0.0 1006229
03:00+10ююз4996100 0.1 1007402
06:00+11з5997100 0.2 1007528
09:00+10з5995100 0.5 1009503
12:00+11з5791100 0.1 1010610
15:00+15з577496 0.2 1010983
18:00+16з456648 0.0 10101183
21:00+12ю23825 0.0 101017
16 мая, вс
вс1600:00+9ю338997 0.0 101038
03:00+9ю349241 0.0 101163
06:00+9ююв3493100 0.0 101067
09:00+13ююв5979100 0.0 1010396
12:00+18ююв576977 0.0 1009867
15:00+20ююв566198 0.5 10071464
18:00+17ю5879100 3.6 1006365
21:00+13з3595100 5.8 1006100
17 мая, пн
пн1700:00+12ю1295100 2.7 100638
03:00+11юз3696100 2.8 1007118
06:00+11зюз4898100 0.0 1007404
09:00+13з578742 0.1 1008663
12:00+17з56640 0.1 10081311
15:00+19з455424 0.1 10071849
18:00+17з236594 0.0 100757
21:00+14зсз4972100 0.1 1008233
18 мая, вт
вт1800:00+11зсз4890100 0.1 1010259
03:00+11вюв2292100 1.5 100929
06:00+10зюз259593 0.0 1010142
09:00+12з2390100 0.2 1010305
12:00+15сз337558 0.7 1010810
15:00+16с3469100 2.6 10091033
18:00+12зсз4892100 6.7 1010302
21:00+10ссз51094100 14.4 1011440